Погода в Твердыше

Россия / Курганская область     55°44′43″N   64°29′45″E
темп.,
°C
ветер,
м/с
пор.,
м/с
влажн.,
%
обл.,
%
осадки,
мм/ч
давл.,
гПа
погр.,
м
21 апреля, ср
ср2123:00+2з34595 0.0 102851
02:00+1зсз37740 0.0 1029121
05:000сз37820 0.0 1030115
08:00+4ссз36650 0.0 1031299
11:00+9ссз35525 0.0 10321089
14:00+12ссз34439 0.0 10311732
17:00+12с234171 0.0 10321771
20:00+8вюв376368 0.0 1034196
22 апреля, чт
чт2223:00+5вюв36725 0.0 1035113
02:00+4юв23765 0.0 103644
05:00+3ююв24795 0.0 103763
08:00+7ююв366110 0.0 1038309
11:00+12ююв5646100 0.0 10371206
14:00+14ю5640100 0.0 10371902
17:00+14ю5739100 0.0 10361971
20:00+10ююв41054100 0.0 1036301
23 апреля, пт
пт2323:00+9ююв41159100 0.0 1036362
02:00+7ююв41163100 0.0 1036330
05:00+6ююв41167100 0.0 1036303
08:00+8ю41056100 0.0 1036452
11:00+10ю5748100 0.0 1036668
14:00+12ююв6838100 0.0 10341119
17:00+13ююв573776 0.0 10341722
20:00+10ююв4104764 0.0 1033273
24 апреля, сб
сб2423:00+8ююв4125098 0.0 1032360
02:00+7ююв41149100 0.0 1031310
05:00+6юв3855100 0.0 1030195
08:00+7юв3754100 0.0 1029281
11:00+10ююв4744100 0.0 1028609
14:00+13ююв6933100 0.0 10271447
17:00+10ююв5844100 0.0 1026995
20:00+8юв51150100 0.0 1025687
25 апреля, вс
вс2523:00+7ююв41056100 0.0 1024870
02:00+7вюв5115891 0.0 1020521
05:00+5вюв5135999 0.0 1018389
08:00+7юв51252100 0.0 1016642
11:00+10ююв695031 0.0 1014920
14:00+9ю6871100 0.0 10141373
17:00+8ююз5987100 1.1 1013888
20:00+7зюз4118335 0.0 1015777